,,,PA_Meas_PMT16A,,PR_Meas_QMR101_102,,RH_Meas_QMH101,,SR_Meas_QMS101,,TA_Meas_QMH101,,GenWind,,GenWind,
date,time,status,PA,status,PR,status,RH,status,SR,status,TA,status,DirAvg,status,SpdAvg,
2011-05-05, 00:00:04,VALID,1004.46,VALID,0,INVALID,163.754,VALID,0.100563,VALID,23.8769,VALID,354,VALID,0.294531,
2011-05-05, 00:01:04,VALID,1004.45,VALID,0,INVALID,163.754,VALID,0,VALID,23.8769,VALID,354,VALID,0.273828,
2011-05-05, 00:02:04,VALID,1004.46,VALID,0,INVALID,163.754,VALID,0,VALID,23.8769,VALID,354,VALID,0.328125,
2011-05-05, 00:03:04,VALID,1004.48,VALID,0,INVALID,163.762,VALID,0,VALID,23.8769,VALID,354,VALID,0.302344,
2011-05-05, 00:04:04,VALID,1004.49,VALID,0,INVALID,163.777,VALID,0,VALID,23.8964,VALID,354,VALID,0.376172,
2011-05-05, 00:05:04,VALID,1004.49,VALID,0,INVALID,163.746,VALID,0.100563,VALID,23.9159,VALID,354,VALID,0.407813,
2011-05-05, 00:06:04,VALID,1004.48,VALID,0,INVALID,163.762,VALID,0.100563,VALID,23.8964,VALID,354,VALID,0.43125,
2011-05-05, 00:07:04,VALID,1004.48,VALID,0,INVALID,163.754,VALID,0,VALID,23.8751,VALID,354,VALID,0.468359,
2011-05-05, 00:08:04,VALID,1004.5,VALID,0,INVALID,163.762,VALID,0,VALID,23.9177,VALID,354,VALID,0.538281,
2011-05-05, 00:09:04,VALID,1004.46,VALID,0,INVALID,163.723,VALID,0,VALID,23.9371,VALID,354,VALID,0.700781,
2011-05-05, 00:10:04,VALID,1004.49,VALID,0,INVALID,163.754,VALID,0,VALID,23.9159,VALID,353,VALID,0.400781,
2011-05-05, 00:11:04,VALID,1004.51,VALID,0,INVALID,163.746,VALID,0,VALID,23.9353,VALID,348,VALID,0.534766,
2011-05-05, 00:12:04,VALID,1004.5,VALID,0,INVALID,163.762,VALID,0,VALID,23.9548,VALID,348,VALID,0.264844,
2011-05-05, 00:13:04,VALID,1004.5,VALID,0,INVALID,163.731,VALID,0,VALID,23.9955,VALID,348,VALID,0.437109,
2011-05-05, 00:14:04,VALID,1004.53,VALID,0,INVALID,163.716,VALID,0,VALID,23.9937,VALID,348,VALID,0.313672,
2011-05-05, 00:15:04,VALID,1004.51,VALID,0,INVALID,163.754,VALID,0.100563,VALID,23.9937,VALID,348,VALID,0.201562,
2011-05-05, 00:16:04,VALID,1004.51,VALID,0,INVALID,163.739,VALID,0,VALID,23.9937,VALID,348,VALID,0.288672,
2011-05-05, 00:17:04,VALID,1004.49,VALID,0,INVALID,163.739,VALID,0.100563,VALID,24.0132,VALID,344,VALID,0.666797,
2011-05-05, 00:18:04,VALID,1004.5,VALID,0,INVALID,163.739,VALID,0,VALID,24.0326,VALID,339,VALID,0.312109,
2011-05-05, 00:19:04,VALID,1004.5,VALID,0,INVALID,163.723,VALID,0,VALID,24.091,VALID,311,VALID,0.439063,
2011-05-05, 00:20:04,VALID,1004.52,VALID,0,INVALID,163.739,VALID,0,VALID,24.1105,VALID,302,VALID,0.482812,
2011-05-05, 00:21:04,VALID,1004.5,VALID,0,INVALID,163.731,VALID,0,VALID,24.1689,VALID,342,VALID,0.451953,
2011-05-05, 00:22:04,VALID,1004.47,VALID,0,INVALID,163.754,VALID,0,VALID,24.2078,VALID,357,VALID,0.688672,
2011-05-05, 00:23:04,VALID,1004.46,VALID,0,INVALID,163.746,VALID,0,VALID,24.2468,VALID,303,VALID,0.373828,
2011-05-05, 00:24:04,VALID,1004.43,VALID,0,INVALID,163.739,VALID,0,VALID,24.2857,VALID,302,VALID,0.0933594,
2011-05-05, 00:25:04,VALID,1004.42,VALID,0,INVALID,163.723,VALID,0,VALID,24.3246,VALID,360,VALID,0.244922,
2011-05-05, 00:26:04,VALID,1004.38,VALID,0,INVALID,163.723,VALID,0,VALID,24.3441,VALID,360,VALID,0,
2011-05-05, 00:27:04,VALID,1004.38,VALID,0,INVALID,163.708,VALID,0.100563,VALID,24.383,VALID,360,VALID,0,
2011-05-05, 00:28:04,VALID,1004.33,VALID,0,INVALID,163.716,VALID,0,VALID,24.383,VALID,360,VALID,0,
2011-05-05, 00:29:04,VALID,1004.32,VALID,0,INVALID,163.723,VALID,0,VALID,24.383,VALID,360,VALID,0,
2011-05-05, 00:30:04,VALID,1004.28,VALID,0,INVALID,163.716,VALID,0,VALID,24.4238,VALID,320,VALID,0.267969,
2011-05-05, 00:31:04,VALID,1004.28,VALID,0,INVALID,163.693,VALID,0,VALID,24.4433,VALID,283,VALID,0.0488281,
2011-05-05, 00:32:04,VALID,1004.24,VALID,0,INVALID,163.723,VALID,0,VALID,24.4628,VALID,286,VALID,0.171875,
2011-05-05, 00:33:04,VALID,1004.23,VALID,0,INVALID,163.716,VALID,0,VALID,24.5017,VALID,11,VALID,0.287891,
2011-05-05, 00:34:04,VALID,1004.22,VALID,0,INVALID,163.67,VALID,0,VALID,24.562,VALID,11,VALID,0.124219,
2011-05-05, 00:35:04,VALID,1004.19,VALID,0,INVALID,163.693,VALID,0,VALID,24.5601,VALID,10,VALID,0.203125,
2011-05-05, 00:36:04,VALID,1004.19,VALID,0,INVALID,163.693,VALID,0,VALID,24.6009,VALID,10,VALID,0,
2011-05-05, 00:37:04,VALID,1004.17,VALID,0,INVALID,163.693,VALID,0,VALID,24.599,VALID,305,VALID,0.285547,
2011-05-05, 00:38:04,VALID,1004.15,VALID,0,INVALID,163.678,VALID,0,VALID,24.6185,VALID,354,VALID,0.492188,
2011-05-05, 00:39:04,VALID,1004.13,VALID,0,INVALID,163.693,VALID,0,VALID,24.6185,VALID,354,VALID,0.594922,
2011-05-05, 00:40:04,VALID,1004.11,VALID,0,INVALID,163.701,VALID,0,VALID,24.599,VALID,354,VALID,0.591406,
2011-05-05, 00:41:04,VALID,1004.12,VALID,0,INVALID,163.693,VALID,0,VALID,24.599,VALID,354,VALID,0.423047,
2011-05-05, 00:42:04,VALID,1004.08,VALID,0,INVALID,163.701,VALID,0,VALID,24.599,VALID,354,VALID,0.160547,
2011-05-05, 00:43:04,VALID,1004.08,VALID,0,INVALID,163.693,VALID,0,VALID,24.5601,VALID,354,VALID,0.262891,
2011-05-05, 00:44:04,VALID,1004.04,VALID,0,INVALID,163.723,VALID,0,VALID,24.5388,VALID,354,VALID,0.353125,
2011-05-05, 00:45:04,VALID,1004.06,VALID,0,INVALID,163.701,VALID,0,VALID,24.4804,VALID,354,VALID,0.39375,
2011-05-05, 00:46:04,VALID,1004.03,VALID,0,INVALID,163.708,VALID,0,VALID,24.4201,VALID,354,VALID,0.285937,
2011-05-05, 00:47:04,VALID,1004.01,VALID,0,INVALID,163.716,VALID,0.100563,VALID,24.3812,VALID,354,VALID,0.357422,
2011-05-05, 00:48:04,VALID,1004.01,VALID,0,INVALID,163.716,VALID,0,VALID,24.3636,VALID,354,VALID,0.317578,
2011-05-05, 00:49:04,VALID,1003.96,VALID,0,INVALID,163.723,VALID,0.100563,VALID,24.3033,VALID,354,VALID,0.126172,
2011-05-05, 00:50:04,VALID,1003.95,VALID,0,INVALID,163.739,VALID,0.100563,VALID,24.3052,VALID,354,VALID,0,
2011-05-05, 00:51:04,VALID,1003.92,VALID,0,INVALID,163.731,VALID,0,VALID,24.2449,VALID,354,VALID,0,
2011-05-05, 00:52:04,VALID,1003.93,VALID,0,INVALID,163.716,VALID,0.100563,VALID,24.2468,VALID,354,VALID,0,
2011-05-05, 00:53:04,VALID,1003.91,VALID,0,INVALID,163.739,VALID,0,VALID,24.2078,VALID,354,VALID,0,
2011-05-05, 00:54:04,VALID,1003.93,VALID,0,INVALID,163.739,VALID,0.100563,VALID,24.2078,VALID,354,VALID,0,
2011-05-05, 00:55:04,VALID,1003.9,VALID,0,INVALID,163.723,VALID,0.100563,VALID,24.1884,VALID,354,VALID,0,
2011-05-05, 00:56:04,VALID,1003.84,VALID,0,INVALID,163.723,VALID,0,VALID,24.1476,VALID,354,VALID,0,
2011-05-05, 00:57:04,VALID,1003.84,VALID,0,INVALID,163.723,VALID,0.100563,VALID,24.1689,VALID,356,VALID,0.310937,
2011-05-05, 00:58:04,VALID,1003.82,VALID,0,INVALID,163.739,VALID,0.100563,VALID,24.1494,VALID,4,VALID,0.476953,
2011-05-05, 00:59:04,VALID,1003.83,VALID,0,INVALID,163.746,VALID,0,VALID,24.1318,VALID,350,VALID,0.473047,
2011-05-05, 01:00:04,VALID,1003.82,VALID,0,INVALID,163.762,VALID,0,VALID,24.1123,VALID,324,VALID,0.177734,
2011-05-05, 01:01:04,VALID,1003.85,VALID,0,INVALID,163.739,VALID,0,VALID,24.1123,VALID,324,VALID,0.0117188,
2011-05-05, 01:02:04,VALID,1003.83,VALID,0,INVALID,163.746,VALID,0,VALID,24.1318,VALID,324,VALID,0.483203,
2011-05-05, 01:03:04,VALID,1003.81,VALID,0,INVALID,163.754,VALID,0,VALID,24.13,VALID,324,VALID,0.362109,
2011-05-05, 01:04:04,VALID,1003.81,VALID,0,INVALID,163.731,VALID,0,VALID,24.13,VALID,324,VALID,0.178906,
2011-05-05, 01:05:04,VALID,1003.81,VALID,0,INVALID,163.731,VALID,0,VALID,24.13,VALID,324,VALID,0,
2011-05-05, 01:06:04,VALID,1003.82,VALID,0,INVALID,163.716,VALID,0,VALID,24.1707,VALID,324,VALID,0,
2011-05-05, 01:07:04,VALID,1003.83,VALID,0,INVALID,163.739,VALID,0,VALID,24.1902,VALID,324,VALID,0,
2011-05-05, 01:08:04,VALID,1003.84,VALID,0,INVALID,163.723,VALID,0,VALID,24.2097,VALID,287,VALID,0.245703,
2011-05-05, 01:09:04,VALID,1003.83,VALID,0,INVALID,163.723,VALID,0,VALID,24.2486,VALID,285,VALID,0.355859,
2011-05-05, 01:10:04,VALID,1003.87,VALID,0,INVALID,163.708,VALID,0,VALID,24.2681,VALID,284,VALID,0.831641,
2011-05-05, 01:11:04,VALID,1003.86,VALID,0,INVALID,163.731,VALID,0,VALID,24.2857,VALID,300,VALID,0.344141,
2011-05-05, 01:12:04,VALID,1003.85,VALID,0,INVALID,163.731,VALID,0,VALID,24.3849,VALID,299,VALID,0.284766,
2011-05-05, 01:13:04,VALID,1003.86,VALID,0,INVALID,163.701,VALID,0,VALID,24.4238,VALID,299,VALID,0.151172,
2011-05-05, 01:14:04,VALID,1003.82,VALID,0,INVALID,163.701,VALID,0,VALID,24.4804,VALID,299,VALID,0,
2011-05-05, 01:15:04,VALID,1003.81,VALID,0,INVALID,163.678,VALID,0,VALID,24.5193,VALID,300,VALID,0.220703,
2011-05-05, 01:16:04,VALID,1003.82,VALID,0,INVALID,163.67,VALID,0,VALID,24.5369,VALID,300,VALID,0.276563,
2011-05-05, 01:17:04,VALID,1003.83,VALID,0,INVALID,163.67,VALID,0.100563,VALID,24.5777,VALID,299,VALID,0,
2011-05-05, 01:18:04,VALID,1003.8,VALID,0,INVALID,163.701,VALID,0.100563,VALID,24.6166,VALID,299,VALID,0.148438,
2011-05-05, 01:19:04,VALID,1003.8,VALID,0,INVALID,163.678,VALID,0.100563,VALID,24.6166,VALID,299,VALID,0.374609,
2011-05-05, 01:20:04,VALID,1003.78,VALID,0,INVALID,163.693,VALID,0,VALID,24.6361,VALID,347,VALID,0.468359,
2011-05-05, 01:21:04,VALID,1003.76,VALID,0,INVALID,163.693,VALID,0.100563,VALID,24.6361,VALID,347,VALID,0.416016,
2011-05-05, 01:22:04,VALID,1003.75,VALID,0,INVALID,163.708,VALID,0,VALID,24.6361,VALID,344,VALID,0.614062,
2011-05-05, 01:23:04,VALID,1003.76,VALID,0,INVALID,163.662,VALID,0,VALID,24.6361,VALID,344,VALID,0.658594,
2011-05-05, 01:24:04,VALID,1003.73,VALID,0,INVALID,163.693,VALID,0,VALID,24.6361,VALID,349,VALID,0.809766,
2011-05-05, 01:25:04,VALID,1003.72,VALID,0,INVALID,163.708,VALID,0,VALID,24.6556,VALID,337,VALID,0.0792969,
2011-05-05, 01:26:04,VALID,1003.71,VALID,0,INVALID,163.693,VALID,0.100563,VALID,24.675,VALID,334,VALID,0.475,
2011-05-05, 01:27:04,VALID,1003.73,VALID,0,INVALID,163.708,VALID,0,VALID,24.6945,VALID,330,VALID,0.268359,
2011-05-05, 01:28:04,VALID,1003.72,VALID,0,INVALID,163.685,VALID,0.100563,VALID,24.6945,VALID,330,VALID,0,
2011-05-05, 01:29:04,VALID,1003.7,VALID,0,INVALID,163.708,VALID,0.100563,VALID,24.7353,VALID,330,VALID,0,
2011-05-05, 01:30:04,VALID,1003.7,VALID,0,INVALID,163.701,VALID,0,VALID,24.7353,VALID,347,VALID,0.789063,
2011-05-05, 01:31:04,VALID,1003.72,VALID,0,INVALID,163.685,VALID,0,VALID,24.7548,VALID,337,VALID,0.328906,
2011-05-05, 01:32:04,VALID,1003.7,VALID,0,INVALID,163.685,VALID,0,VALID,24.7548,VALID,337,VALID,0.00117188,
2011-05-05, 01:33:04,VALID,1003.68,VALID,0,INVALID,163.716,VALID,0,VALID,24.7937,VALID,353,VALID,0.858203,
2011-05-05, 01:34:04,VALID,1003.66,VALID,0,INVALID,163.662,VALID,0,VALID,24.8113,VALID,353,VALID,0.878906,
2011-05-05, 01:35:04,VALID,1003.67,VALID,0,INVALID,163.693,VALID,0,VALID,24.8308,VALID,346,VALID,0.648828,
2011-05-05, 01:36:04,VALID,1003.66,VALID,0,INVALID,163.685,VALID,0,VALID,24.8522,VALID,341,VALID,0.629687,
2011-05-05, 01:37:04,VALID,1003.67,VALID,0,INVALID,163.685,VALID,0,VALID,24.8522,VALID,328,VALID,0.759375,
2011-05-05, 01:38:04,VALID,1003.67,VALID,0,INVALID,163.67,VALID,0,VALID,24.8308,VALID,345,VALID,0.383984,
2011-05-05, 01:39:04,VALID,1003.68,VALID,0,INVALID,163.701,VALID,0.100563,VALID,24.8503,VALID,265,VALID,0.508594,
2011-05-05, 01:40:04,VALID,1003.67,VALID,0,INVALID,163.708,VALID,0,VALID,24.8697,VALID,344,VALID,0.676562,
2011-05-05, 01:41:04,VALID,1003.67,VALID,0,INVALID,163.67,VALID,0,VALID,24.8503,VALID,353,VALID,0.565625,
2011-05-05, 01:42:04,VALID,1003.66,VALID,0,INVALID,163.662,VALID,0,VALID,24.8697,VALID,360,VALID,0.20625,
2011-05-05, 01:43:04,VALID,1003.65,VALID,0,INVALID,163.701,VALID,0,VALID,24.8697,VALID,358,VALID,0.496875,
2011-05-05, 01:44:04,VALID,1003.63,VALID,0,INVALID,163.67,VALID,0,VALID,24.8892,VALID,346,VALID,0.739453,
2011-05-05, 01:45:04,VALID,1003.57,VALID,0,INVALID,163.678,VALID,0,VALID,24.93,VALID,352,VALID,0.691016,
2011-05-05, 01:46:04,VALID,1003.58,VALID,0,INVALID,163.685,VALID,0,VALID,24.9495,VALID,290,VALID,0.598047,
2011-05-05, 01:47:04,VALID,1003.59,VALID,0,INVALID,163.662,VALID,0,VALID,24.9495,VALID,354,VALID,0.734375,
2011-05-05, 01:48:04,VALID,1003.58,VALID,0,INVALID,163.655,VALID,0,VALID,24.9495,VALID,347,VALID,0.91875,
2011-05-05, 01:49:04,VALID,1003.57,VALID,0,INVALID,163.685,VALID,0,VALID,24.9904,VALID,354,VALID,0.966406,
2011-05-05, 01:50:04,VALID,1003.57,VALID,0,INVALID,163.693,VALID,0,VALID,24.969,VALID,351,VALID,1.14688,
2011-05-05, 01:51:04,VALID,1003.57,VALID,0,INVALID,163.678,VALID,0,VALID,24.969,VALID,357,VALID,1.49414,
2011-05-05, 01:52:04,VALID,1003.56,VALID,0,INVALID,163.685,VALID,0,VALID,24.9885,VALID,354,VALID,1.05313,
2011-05-05, 01:53:04,VALID,1003.58,VALID,0,INVALID,163.67,VALID,0,VALID,24.969,VALID,352,VALID,0.738281,
2011-05-05, 01:54:04,VALID,1003.57,VALID,0,INVALID,163.655,VALID,0,VALID,24.969,VALID,304,VALID,0.646875,
2011-05-05, 01:55:04,VALID,1003.58,VALID,0,INVALID,163.678,VALID,0,VALID,24.9495,VALID,3,VALID,0.530859,
2011-05-05, 01:56:04,VALID,1003.59,VALID,0,INVALID,163.67,VALID,0,VALID,24.9495,VALID,355,VALID,0.827734,
2011-05-05, 01:57:04,VALID,1003.6,VALID,0,INVALID,163.701,VALID,0,VALID,24.9476,VALID,356,VALID,0.228125,
2011-05-05, 01:58:04,VALID,1003.56,VALID,0,INVALID,163.662,VALID,0,VALID,24.9495,VALID,356,VALID,0,
2011-05-05, 01:59:04,VALID,1003.59,VALID,0,INVALID,163.678,VALID,0.100563,VALID,24.9068,VALID,356,VALID,0.258594,
2011-05-05, 02:00:04,VALID,1003.57,VALID,0,INVALID,163.685,VALID,0,VALID,24.9068,VALID,356,VALID,0.329688,
2011-05-05, 02:01:04,VALID,1003.55,VALID,0,INVALID,163.655,VALID,0,VALID,24.8892,VALID,356,VALID,0.793359,
2011-05-05, 02:02:04,VALID,1003.54,VALID,0,INVALID,163.693,VALID,0.100563,VALID,24.9087,VALID,354,VALID,0.533594,
2011-05-05, 02:03:04,VALID,1003.54,VALID,0,INVALID,163.685,VALID,0,VALID,24.8892,VALID,360,VALID,0.737109,
2011-05-05, 02:04:04,VALID,1003.56,VALID,0,INVALID,163.678,VALID,0.100563,VALID,24.8892,VALID,348,VALID,0.476953,
2011-05-05, 02:05:04,VALID,1003.55,VALID,0,INVALID,163.693,VALID,0,VALID,24.8697,VALID,345,VALID,0.18125,
2011-05-05, 02:06:04,VALID,1003.55,VALID,0,INVALID,163.678,VALID,0.100563,VALID,24.8503,VALID,342,VALID,0.691016,
2011-05-05, 02:07:04,VALID,1003.54,VALID,0,INVALID,163.693,VALID,0,VALID,24.8484,VALID,343,VALID,0.291406,
2011-05-05, 02:08:04,VALID,1003.53,VALID,0,INVALID,163.678,VALID,0.100563,VALID,24.8503,VALID,355,VALID,0.478906,
2011-05-05, 02:09:04,VALID,1003.55,VALID,0,INVALID,163.678,VALID,0.100563,VALID,24.8503,VALID,355,VALID,0.396094,
2011-05-05, 02:10:04,VALID,1003.52,VALID,0,INVALID,163.708,VALID,0,VALID,24.8503,VALID,356,VALID,0.500781,
2011-05-05, 02:11:04,VALID,1003.53,VALID,0,INVALID,163.708,VALID,0,VALID,24.8503,VALID,352,VALID,0.657422,
2011-05-05, 02:12:04,VALID,1003.49,VALID,0,INVALID,163.708,VALID,0.100563,VALID,24.8503,VALID,353,VALID,0.874219,
2011-05-05, 02:13:04,VALID,1003.5,VALID,0,INVALID,163.685,VALID,0.100563,VALID,24.8503,VALID,318,VALID,0.309375,
2011-05-05, 02:14:04,VALID,1003.46,VALID,0,INVALID,163.678,VALID,0.100563,VALID,24.8503,VALID,352,VALID,0.816016,
2011-05-05, 02:15:04,VALID,1003.43,VALID,0,INVALID,163.693,VALID,0,VALID,24.8716,VALID,340,VALID,0.646094,
2011-05-05, 02:16:04,VALID,1003.4,VALID,0,INVALID,163.693,VALID,0.100563,VALID,24.8289,VALID,350,VALID,0.566797,
2011-05-05, 02:17:04,VALID,1003.39,VALID,0,INVALID,163.678,VALID,0.100563,VALID,24.8503,VALID,355,VALID,0.708594,
2011-05-05, 02:18:04,VALID,1003.39,VALID,0,INVALID,163.685,VALID,0.100563,VALID,24.8308,VALID,346,VALID,0.564062,
2011-05-05, 02:19:04,VALID,1003.39,VALID,0,INVALID,163.67,VALID,0,VALID,24.8308,VALID,340,VALID,0.850781,
2011-05-05, 02:20:04,VALID,1003.38,VALID,0,INVALID,163.662,VALID,0,VALID,24.8095,VALID,347,VALID,0.454688,
2011-05-05, 02:21:04,VALID,1003.38,VALID,0,INVALID,163.693,VALID,0,VALID,24.8308,VALID,344,VALID,0.425,
2011-05-05, 02:22:04,VALID,1003.41,VALID,0,INVALID,163.693,VALID,0,VALID,24.8308,VALID,345,VALID,0.4625,
2011-05-05, 02:23:04,VALID,1003.4,VALID,0,INVALID,163.685,VALID,0,VALID,24.8113,VALID,319,VALID,0.305078,
2011-05-05, 02:24:04,VALID,1003.41,VALID,0,INVALID,163.678,VALID,0.100563,VALID,24.8113,VALID,321,VALID,0.330078,
2011-05-05, 02:25:04,VALID,1003.4,VALID,0,INVALID,163.701,VALID,0.100563,VALID,24.8113,VALID,360,VALID,0.529297,
2011-05-05, 02:26:04,VALID,1003.36,VALID,0,INVALID,163.701,VALID,0.100563,VALID,24.8113,VALID,259,VALID,0.299219,
2011-05-05, 02:27:04,VALID,1003.34,VALID,0,INVALID,163.701,VALID,0.100563,VALID,24.8095,VALID,261,VALID,0.164063,
2011-05-05, 02:28:04,VALID,1003.31,VALID,0,INVALID,163.693,VALID,0,VALID,24.79,VALID,262,VALID,0.0902344,
2011-05-05, 02:29:04,VALID,1003.3,VALID,0,INVALID,163.678,VALID,0,VALID,24.8113,VALID,340,VALID,0.566016,
2011-05-05, 02:30:04,VALID,1003.27,VALID,0,INVALID,163.708,VALID,0,VALID,24.8113,VALID,344,VALID,0.319531,
2011-05-05, 02:31:04,VALID,1003.26,VALID,0,INVALID,163.708,VALID,0,VALID,24.7919,VALID,344,VALID,0.09375,
2011-05-05, 02:32:04,VALID,1003.27,VALID,0,INVALID,163.685,VALID,0,VALID,24.8113,VALID,340,VALID,0.208594,
2011-05-05, 02:33:04,VALID,1003.26,VALID,0,INVALID,163.693,VALID,0,VALID,24.7919,VALID,334,VALID,0.201953,
2011-05-05, 02:34:04,VALID,1003.24,VALID,0,INVALID,163.678,VALID,0,VALID,24.8132,VALID,279,VALID,0.136719,
2011-05-05, 02:35:04,VALID,1003.22,VALID,0,INVALID,163.693,VALID,0,VALID,24.7919,VALID,310,VALID,0.114844,
2011-05-05, 02:36:04,VALID,1003.21,VALID,0,INVALID,163.678,VALID,0,VALID,24.7724,VALID,318,VALID,0,
2011-05-05, 02:37:04,VALID,1003.2,VALID,0,INVALID,163.693,VALID,0,VALID,24.7705,VALID,329,VALID,0.5,
2011-05-05, 02:38:04,VALID,1003.22,VALID,0,INVALID,163.693,VALID,0,VALID,24.7724,VALID,291,VALID,0.430859,
2011-05-05, 02:39:04,VALID,1003.17,VALID,0,INVALID,163.67,VALID,0,VALID,24.7919,VALID,290,VALID,0.141406,
2011-05-05, 02:40:04,VALID,1003.16,VALID,0,INVALID,163.693,VALID,0,VALID,24.7724,VALID,275,VALID,0.372266,
2011-05-05, 02:41:04,VALID,1003.14,VALID,0,INVALID,163.67,VALID,0,VALID,24.7743,VALID,275,VALID,0.00585938,
2011-05-05, 02:42:04,VALID,1003.15,VALID,0,INVALID,163.678,VALID,0.100563,VALID,24.7316,VALID,275,VALID,0.280469,
2011-05-05, 02:43:04,VALID,1003.15,VALID,0,INVALID,163.685,VALID,0,VALID,24.7529,VALID,275,VALID,0.0988281,
2011-05-05, 02:44:04,VALID,1003.16,VALID,0,INVALID,163.693,VALID,0,VALID,24.7529,VALID,275,VALID,0.148438,
2011-05-05, 02:45:04,VALID,1003.15,VALID,0,INVALID,163.678,VALID,0,VALID,24.7743,VALID,285,VALID,0.448438,
2011-05-05, 02:46:04,VALID,1003.17,VALID,0,INVALID,163.693,VALID,0.100563,VALID,24.7548,VALID,280,VALID,0.878516,
2011-05-05, 02:47:04,VALID,1003.17,VALID,0,INVALID,163.693,VALID,0,VALID,24.7335,VALID,276,VALID,0.234375,
2011-05-05, 02:48:04,VALID,1003.2,VALID,0,INVALID,163.701,VALID,0,VALID,24.7529,VALID,276,VALID,0.394141,
2011-05-05, 02:49:04,VALID,1003.22,VALID,0,INVALID,163.678,VALID,0,VALID,24.7529,VALID,276,VALID,0.0609375,
2011-05-05, 02:50:04,VALID,1003.21,VALID,0,INVALID,163.678,VALID,0,VALID,24.7743,VALID,276,VALID,0.203906,
2011-05-05, 02:51:04,VALID,1003.23,VALID,0,INVALID,163.708,VALID,0,VALID,24.7335,VALID,344,VALID,0.251172,
2011-05-05, 02:52:04,VALID,1003.26,VALID,0,INVALID,163.685,VALID,0,VALID,24.7335,VALID,352,VALID,0.391016,
2011-05-05, 02:53:04,VALID,1003.26,VALID,0,INVALID,163.716,VALID,0,VALID,24.7548,VALID,354,VALID,0.784375,
2011-05-05, 02:54:04,VALID,1003.26,VALID,0,INVALID,163.701,VALID,0,VALID,24.714,VALID,1,VALID,0.578516,
2011-05-05, 02:55:04,VALID,1003.29,VALID,0,INVALID,163.678,VALID,0.100563,VALID,24.714,VALID,344,VALID,0.605859,
2011-05-05, 02:56:04,VALID,1003.28,VALID,0,INVALID,163.693,VALID,0,VALID,24.714,VALID,343,VALID,0.917578,
2011-05-05, 02:57:04,VALID,1003.28,VALID,0,INVALID,163.701,VALID,0,VALID,24.6945,VALID,340,VALID,0.327344,
2011-05-05, 02:58:04,VALID,1003.3,VALID,0,INVALID,163.701,VALID,0,VALID,24.6945,VALID,340,VALID,0.229687,
2011-05-05, 02:59:04,VALID,1003.3,VALID,0,INVALID,163.67,VALID,0.100563,VALID,24.6732,VALID,339,VALID,0.753516,
2011-05-05, 03:00:04,VALID,1003.3,VALID,0,INVALID,163.678,VALID,0,VALID,24.675,VALID,4,VALID,0.478516,
2011-05-05, 03:01:04,VALID,1003.29,VALID,0,INVALID,163.701,VALID,0,VALID,24.6964,VALID,9,VALID,0.613672,
2011-05-05, 03:02:04,VALID,1003.29,VALID,0,INVALID,163.693,VALID,0,VALID,24.675,VALID,353,VALID,0.91875,
2011-05-05, 03:03:04,VALID,1003.3,VALID,0,INVALID,163.678,VALID,0,VALID,24.6945,VALID,343,VALID,0.796875,
2011-05-05, 03:04:04,VALID,1003.3,VALID,0,INVALID,163.67,VALID,0,VALID,24.6945,VALID,320,VALID,0.583203,
2011-05-05, 03:05:04,VALID,1003.31,VALID,0,INVALID,163.701,VALID,0,VALID,24.6964,VALID,6,VALID,0.814062,
2011-05-05, 03:06:04,VALID,1003.28,VALID,0,INVALID,163.693,VALID,0,VALID,24.675,VALID,351,VALID,0.919922,
2011-05-05, 03:07:04,VALID,1003.29,VALID,0,INVALID,163.701,VALID,0,VALID,24.675,VALID,347,VALID,0.799219,
2011-05-05, 03:08:04,VALID,1003.28,VALID,0,INVALID,163.685,VALID,0,VALID,24.675,VALID,292,VALID,0.408203,
2011-05-05, 03:09:04,VALID,1003.28,VALID,0,INVALID,163.678,VALID,0,VALID,24.6769,VALID,292,VALID,0.264453,
2011-05-05, 03:10:04,VALID,1003.29,VALID,0,INVALID,163.708,VALID,0,VALID,24.6556,VALID,355,VALID,0.529297,
2011-05-05, 03:11:04,VALID,1003.27,VALID,0,INVALID,163.716,VALID,0.100563,VALID,24.6769,VALID,341,VALID,0.469922,
2011-05-05, 03:12:04,VALID,1003.3,VALID,0,INVALID,163.685,VALID,0,VALID,24.6556,VALID,353,VALID,0.896094,
2011-05-05, 03:13:04,VALID,1003.29,VALID,0,INVALID,163.678,VALID,0,VALID,24.6361,VALID,2,VALID,0.210156,
2011-05-05, 03:14:04,VALID,1003.28,VALID,0,INVALID,163.731,VALID,0,VALID,24.6574,VALID,319,VALID,0.408594,
2011-05-05, 03:15:04,VALID,1003.27,VALID,0,INVALID,163.708,VALID,0,VALID,24.6574,VALID,336,VALID,0.964844,
2011-05-05, 03:16:04,VALID,1003.31,VALID,0,INVALID,163.685,VALID,0,VALID,24.6361,VALID,356,VALID,0.587109,
2011-05-05, 03:17:04,VALID,1003.28,VALID,0,INVALID,163.701,VALID,0,VALID,24.5972,VALID,346,VALID,1.17734,
2011-05-05, 03:18:05,VALID,1003.29,VALID,0,INVALID,163.723,VALID,0,VALID,24.6185,VALID,350,VALID,0.618359,
2011-05-05, 03:19:05,VALID,1003.27,VALID,0,INVALID,163.701,VALID,0,VALID,24.5777,VALID,329,VALID,0.664844,
2011-05-05, 03:20:05,VALID,1003.25,VALID,0,INVALID,163.716,VALID,0.100563,VALID,24.599,VALID,360,VALID,0.564453,
2011-05-05, 03:21:05,VALID,1003.22,VALID,0,INVALID,163.708,VALID,0,VALID,24.5796,VALID,329,VALID,0.767969,
2011-05-05, 03:22:05,VALID,1003.22,VALID,0,INVALID,163.723,VALID,0,VALID,24.5796,VALID,346,VALID,0.638672,
2011-05-05, 03:23:05,VALID,1003.21,VALID,0,INVALID,163.708,VALID,0,VALID,24.5388,VALID,339,VALID,0.625,
2011-05-05, 03:24:05,VALID,1003.16,VALID,0,INVALID,163.67,VALID,0.100563,VALID,24.5582,VALID,331,VALID,0.225,
2011-05-05, 03:25:05,VALID,1003.2,VALID,0,INVALID,163.701,VALID,0.100563,VALID,24.5174,VALID,359,VALID,0.904297,
2011-05-05, 03:26:05,VALID,1003.18,VALID,0,INVALID,163.701,VALID,0.100563,VALID,24.5193,VALID,355,VALID,0.516797,
2011-05-05, 03:27:05,VALID,1003.19,VALID,0,INVALID,163.701,VALID,0,VALID,24.5388,VALID,349,VALID,0.585547,
2011-05-05, 03:28:05,VALID,1003.22,VALID,0,INVALID,163.723,VALID,0,VALID,24.5193,VALID,355,VALID,0.585547,
2011-05-05, 03:29:05,VALID,1003.19,VALID,0,INVALID,163.708,VALID,0.100563,VALID,24.5193,VALID,352,VALID,0.641797,
2011-05-05, 03:30:05,VALID,1003.25,VALID,0,INVALID,163.723,VALID,0,VALID,24.4998,VALID,346,VALID,0.633203,
2011-05-05, 03:31:05,VALID,1003.27,VALID,0,INVALID,163.731,VALID,0,VALID,24.4998,VALID,334,VALID,0.344922,
2011-05-05, 03:32:05,VALID,1003.26,VALID,0,INVALID,163.716,VALID,0,VALID,24.4998,VALID,331,VALID,0.873828,
2011-05-05, 03:33:05,VALID,1003.27,VALID,0,INVALID,163.746,VALID,0.100563,VALID,24.4998,VALID,344,VALID,0.668359,
2011-05-05, 03:34:05,VALID,1003.28,VALID,0,INVALID,163.716,VALID,0,VALID,24.4804,VALID,327,VALID,0.496484,
2011-05-05, 03:35:05,VALID,1003.29,VALID,0,INVALID,163.708,VALID,0,VALID,24.4998,VALID,332,VALID,0.770703,
2011-05-05, 03:36:05,VALID,1003.31,VALID,0,INVALID,163.67,VALID,0.100563,VALID,24.4998,VALID,360,VALID,0.65625,
2011-05-05, 03:37:05,VALID,1003.33,VALID,0,INVALID,163.708,VALID,0,VALID,24.4804,VALID,312,VALID,0.483203,
2011-05-05, 03:38:05,VALID,1003.33,VALID,0,INVALID,163.701,VALID,0,VALID,24.4998,VALID,341,VALID,0.408594,